Voltar ao catálogo

DELTA 1 DEB

AtivoSSO
NORAD 19590·DEBRIS·🇺🇸 United States

Lançado Nov 6, 1973 de Vandenberg Space Force Base

Loading…

Próximas Passagens (próximas 24 horas)

TLE

EnvelhecendoSource: Space-Track

Época: Sep 7, 2026, 00:15 UTC

1 19590U 73086HG  26250.01083640 -.00000035  00000-0  94618-4 0  9996
2 19590 102.4548 272.6462 0045579 268.0006 120.8248 12.31852813656232

Acompanhe DELTA 1 DEB em tempo real com AllMySat

Download on the App Store